MPEC 2006-C67 : COMET P/2005 YQ127 (LINEAR)

The following Minor Planet Electronic Circular may be linked-to from your own Web pages, but must not otherwise be redistributed electronically.


Read MPEC 2006-C66 Read MPEC 2006-C68


M.P.E.C. 2006-C67                                Issued 2006 Feb. 11, 16:24 UT

     The Minor Planet Electronic Circulars contain information on unusual
         minor planets and routine data on comets.  They are published
   on behalf of Commission 20 of the International Astronomical Union by the
          Minor Planet Center, Smithsonian Astrophysical Observatory,
                          Cambridge, MA 02138, U.S.A.

                  Supported in part by the Brinson Foundation
                  Supported in part by the TABASGO Foundation
             Prepared using the Tamkin Foundation Computer Network

                              MPC@CFA.HARVARD.EDU
          URL http://cfa-www.harvard.edu/iau/mpc.html  ISSN 1523-6714

                          COMET P/2005 YQ127 (LINEAR)

Observations:
    PK05YC7Q  C2006 01 14.98551 05 47 56.71 +21 19 19.9          17.1 T EC067204
    PK05YC7Q  C2006 01 15.01552 05 47 56.18 +21 18 57.6                 EC067204
    PK05YC7Q  C2006 01 19.75057 05 46 51.50 +20 22 25.7                 EC067473
    PK05YC7Q  C2006 01 22.43502 05 46 34.66 +19 52 33.9          16.5 T EC067D88
    PK05YC7Q  C2006 01 22.44097 05 46 34.68 +19 52 29.5                 EC067D88
    PK05YC7Q  C2006 01 22.44693 05 46 34.66 +19 52 25.7                 EC067D88
    PK05YC7Q  C2006 01 22.65620 05 46 33.42 +19 50 09.5                 EC067349
    PK05YC7Q  C2006 01 22.66287 05 46 33.43 +19 50 04.6                 EC067349
    PK05YC7Q  C2006 01 22.66954 05 46 33.40 +19 50 00.9          16.6 T EC067349
    PK05YC7Q  C2006 01 22.77720 05 46 33.60 +19 48 51.4                 EC067473
    PK05YC7Q  C2006 01 22.77833 05 46 33.55 +19 48 50.6                 EC067473
    PK05YC7Q  C2006 01 22.78395 05 46 33.56 +19 48 47.9                 EC067473
    PK05YC7Q  C2006 01 22.87919 05 46 33.08 +19 47 45.6          18.8 N EC067130
    PK05YC7Q  C2006 01 22.88252 05 46 33.05 +19 47 43.0          18.4 N EC067130
    PK05YC7Q  C2006 01 22.88585 05 46 33.05 +19 47 40.9          18.2 N EC067130
    PK05YC7Q  C2006 01 22.88918 05 46 33.02 +19 47 38.8          17.8 N EC067130
    PK05YC7Q  C2006 01 22.89759 05 46 33.00 +19 47 33.2                 EC067A30
    PK05YC7Q  C2006 01 22.90072 05 46 32.97 +19 47 31.2                 EC067A30
    PK05YC7Q  C2006 01 22.90789 05 46 32.91 +19 47 26.9                 EC067A30
    PK05YC7Q  C2006 01 22.90957 05 46 32.90 +19 47 25.8                 EC067A30
    PK05YC7Q  C2006 01 23.21313 05 46 32.34 +19 44 13.0          18.6 T EC067704
    PK05YC7Q  C2006 01 23.22586 05 46 32.30 +19 44 03.0          18.9 T EC067704
    PK05YC7Q  C2006 01 23.23858 05 46 32.18 +19 43 55.4          18.9 T EC067704
    PK05YC7Q  C2006 01 23.26387 05 46 32.16 +19 43 38.0          19.2 T EC067704
    PK05YC7Q  C2006 01 23.67830 05 46 31.21 +19 39 15.0                 EC067349
    PK05YC7Q  C2006 01 23.68267 05 46 31.20 +19 39 12.5                 EC067349
    PK05YC7Q  C2006 01 23.68705 05 46 31.15 +19 39 09.6          16.8 T EC067349
    PK05YC7Q  C2006 01 26.25235 05 46 35.35 +19 12 47.8          18.4 T EC067H45
    PK05YC7Q  C2006 01 26.25876 05 46 35.48 +19 12 43.9          18.4 T EC067H45
    PK05YC7Q  C2006 01 26.26157 05 46 35.36 +19 12 42.5          18.3 T EC067H45
    PK05YC7Q  C2006 01 28.54753 05 46 50.24 +18 50 28.1                 EC067D88
    PK05YC7Q  C2006 01 28.55350 05 46 50.34 +18 50 23.6                 EC067D88
    PK05YC7Q  C2006 01 28.55947 05 46 50.33 +18 50 21.0          17.3 T EC067D88
    PK05YC7Q  C2006 01 28.68012 05 46 51.37 +18 49 10.8                 EC067349
    PK05YC7Q  C2006 01 28.68457 05 46 51.40 +18 49 08.1                 EC067349
    PK05YC7Q  C2006 01 28.68903 05 46 51.43 +18 49 05.6          16.9 T EC067349
    PK05YC7Q  C2006 02 04.09413 05 48 29.89 +17 52 51.0          18.8 T EC067704
    PK05YC7Q  C2006 02 04.10685 05 48 30.09 +17 52 45.0          19.0 T EC067704
    PK05YC7Q  C2006 02 04.11999 05 48 30.38 +17 52 38.0          19.1 T EC067704
    PK05YC7Q  C2006 02 04.13275 05 48 30.64 +17 52 32.3          18.9 T EC067704
    PK05YC7Q  C2006 02 04.14579 05 48 30.85 +17 52 25.8          18.6 T EC067704

Observer details:
130 Lumezzane.  Observers W. Marinello, M. Micheli, G. Pizzetti,
    A. Soffiantini.  Measurers W. Marinello, M. Micheli.  0.40-m f/4.5
    reflector + CCD.
204 Schiaparelli Observatory.  Observer L. Buzzi.  0.60-m f/4.64 reflector
    + CCD.
349 Ageo.  Observer K. Kadota.  0.25-m f/5.0 reflector + CCD.
473 Remanzacco.  Observers M. Gonano, V. Gonano, G. Sostero.  Measurers
    V. Gonano, E. Guido.  0.25-m f/5.7 Schmidt-Cassegrain + CCD.
704 Lincoln Laboratory ETS, New Mexico.  Observers M. Bezpalko, L. Manguso,
    D. Torres, R. Kracke, A. Milner, H. Love.  Measurers J. Stuart, R. Sayer,
    J. Evans, J. Kommers.  1.0-m f/2.15 reflector + CCD.
A30 Crespadoro.  Observers S. Valentini, G. Peretto.  Measurer S. Valentini.
    0.23-m f/10 Schmidt-Cassegrain + CCD.
D88 Hiratsuka.  Observer Y. Sugiyama.  0.25-m f/5.0 reflector + CCD.
H45 Petit Jean Mountain South.  Observer P. C. Sherrod.  0.41-m f/3.3
    Schmidt-Cassegrain + CCD.

Orbital elements:
    P/2005 YQ127 (LINEAR)
Epoch 2005 Nov. 6.0 TT = JDT 2453680.5
T 2005 Nov. 3.97666 TT                                  MPC
q   1.9189688            (2000.0)            P               Q
n   0.12966910     Peri.  152.31023     +0.34390641     -0.89440707
a   3.8658504      Node   276.37847     +0.79955793     +0.43860513
e   0.5036102      Incl.   16.72185     +0.49237740     -0.08753020
P   7.60
From 146 observations 2005 Dec. 5-2006 Feb. 4, mean residual 0".63.

Brian G. Marsden             (C) Copyright 2006 MPC           M.P.E.C. 2006-C67

Read MPEC 2006-C66 Read MPEC 2006-C68


Our Web policy. Index to the CBAT/MPC/ICQ pages.

MPC

Valid HTML 4.01!